User: anonymous   Login
Location: Unspecified
(47.1700°N, 0.0000°E)
Time: 04:28:25
(UTC+00:00)
Language:

CAS-4A - Orbit

View from above orbital plane
View from above orbital plane
View from above satellite
View from above satellite

Ground track
Ground track

The orbit data is extracted from the following two-line orbital elements,

1 42761U 17034D   19202.85312005  .00000021  00000-0  14815-4 0  9999
2 42761  43.0196  48.1614 0010451  98.9139  23.7359 15.09677604115842
Epoch (UTC): 21 July 2019 20:28:29
Eccentricity: 0.0010451
inclination: 43.0196°
perigee height: 530 km
apogee height: 544 km
right ascension of ascending node: 48.1614°
argument of perigee: 98.9139°
revolutions per day: 15.09677604
mean anomaly at epoch: 23.7359°
orbit number at epoch: 11584

The dashed part of the orbit path shows where the satellite is in the earth's shadow,  

DLR